Station NKTA2 - 9455760 - Nikiski, AK Image indicating link to RSS feed of recent meteorological observations for station NKTA2


Conditions at NKTA2 as of
(9:18 am AKDT)
1718 GMT on 05/20/2024:
     

Click on the graph icon in the table below to see a time series plot of the last five days of that observation.

5-day plot - Wind Direction Wind Direction (WDIR): S ( 190 deg true )
5-day plot - Wind Speed Wind Speed (WSPD): 4.1 kts
5-day plot - Wind Gust Wind Gust (GST): 5.1 kts
5-day plot - Atmospheric Pressure Atmospheric Pressure (PRES):30.01 in
5-day plot - Air Temperature Air Temperature (ATMP): 45.5 °F
5-day plot - Water Temperature Water Temperature (WTMP): 42.4 °F
5-day plot - Wind Chill Wind Chill (CHILL): 43.2 °F
5-day plot - Wind Speed at 10 Meters Wind Speed at 10 meters (WSPD10M): 3.9 kts
5-day plot - Wind Speed at 20 Meters Wind Speed at 20 meters (WSPD20M): 5.8 kts
5-day plot -  Wind Speed, Wind Gust and Atmospheric Pressure Combined plot of Wind Speed, Gust, and Air Pressure
NOS Water Level Observation Network Water Level
Previous observations
TIME
(AKDT)
5-day plot - Wind Direction
WDIR
 
5-day plot - Wind Speed
WSPD
kts
5-day plot - Wind Gust
GST
kts
5-day plot - Wave Height
WVHT
ft
5-day plot - Dominant Wave Period
DPD
sec
5-day plot - Average Wave Period
APD
sec
5-day plot - Mean Wave Direction
MWD
 
5-day plot - Atmospheric Pressure
PRES
in
5-day plot - Pressure Tendency
PTDY
in
5-day plot - Air Temperature
ATMP
°F
5-day plot - Water Temperature
WTMP
°F
5-day plot - Dew Point
DEWP
°F
5-day plot - Salinity
SAL
psu
5-day plot - Visibility
VIS
nmi
5-day plot - Tide (above MLLW)
TIDE
ft
2024-05-20 09:12 amSSW 4.1 6.0----30.01- 45.3 42.4----
2024-05-20 09:06 am S 6.0 8.0----30.01- 45.1 42.4----
2024-05-20 09:00 am S 6.0 7.0----30.00+0.01 45.1 42.4----
2024-05-20 08:54 am S 6.0 7.0----30.00- 45.1 42.4----
2024-05-20 08:48 am S 7.0 8.9----30.00- 45.0 42.4----
2024-05-20 08:42 am S 7.0 8.9----30.00- 44.8 42.4----
2024-05-20 08:36 am S 8.0 9.9----30.01- 44.8 42.4----
2024-05-20 08:30 am S 8.9 11.1----30.01- 44.6 42.4----
2024-05-20 08:24 am S 9.9 11.1----30.00- 44.8 42.4----
2024-05-20 08:18 am S 9.9 12.0----30.00- 44.6 42.4----
2024-05-20 08:12 am S 11.1 12.0----30.00- 44.4 42.4----
2024-05-20 08:06 am S 11.1 13.0----30.00- 44.4 42.4----
2024-05-20 08:00 am S 11.1 13.0----30.00+0.01 44.6 42.6----
2024-05-20 07:54 am S 11.1 14.0----30.00- 44.6 42.6----
2024-05-20 07:48 am S 12.0 13.0----30.00- 44.6 42.6----
2024-05-20 07:42 am S 9.9 12.0----30.00- 44.8 42.6----
2024-05-20 07:36 am S 8.9 13.0----30.00- 45.0 42.6----
2024-05-20 07:30 am S 8.0 15.0----30.00- 44.8 42.6----
2024-05-20 07:24 am S 11.1 15.9----30.00- 44.6 42.8----
2024-05-20 07:18 am S 9.9 14.0----30.00- 44.6 42.8----
2024-05-20 07:12 am S 12.0 14.0----29.99- 44.8 42.8----
2024-05-20 07:06 am S 12.0 15.0----29.99- 44.8 42.8----
2024-05-20 07:00 am S 12.0 15.0----29.99+0.00 44.6 42.8----
2024-05-20 06:54 am S 11.1 15.0----29.99- 44.8 42.8----
2024-05-20 06:48 am S 12.0 15.9----29.99- 44.8 42.8----
2024-05-20 06:42 am S 9.9 15.0----29.99- 45.0 42.8----
2024-05-20 06:36 am S 13.0 15.0----29.99- 44.6 42.8----
2024-05-20 06:30 am S 13.0 17.1----29.99- 44.8 42.8----
2024-05-20 06:24 am S 11.1 15.0----29.99- 44.8 42.8----
2024-05-20 06:18 am S 11.1 13.0----29.99- 44.8 43.0----
2024-05-20 06:12 am S 11.1 14.0----29.99- 44.8 43.0----
2024-05-20 06:06 am S 9.9 13.0----29.99- 44.6 43.0----
2024-05-20 06:00 am S 9.9 14.0----29.99+0.01 44.4 43.2----
2024-05-20 05:54 am S 9.9 13.0----29.99- 44.2 43.2----
2024-05-20 05:48 am S 8.9 13.0----29.99- 44.2 43.3----
2024-05-20 05:42 am S 9.9 13.0----29.99- 44.2 43.3----
2024-05-20 05:36 am S 9.9 13.0----29.99- 44.1 43.5----
2024-05-20 05:30 am S 9.9 14.0----29.99- 44.1 43.7----
2024-05-20 05:24 am S 9.9 14.0----29.99- 44.1 43.7----
2024-05-20 05:18 am S 9.9 14.0----29.99- 44.1 43.7----
2024-05-20 05:12 am S 8.9 13.0----29.99- 44.1 43.7----
2024-05-20 05:06 am S 9.9 14.0----29.99- 44.1 43.9----
2024-05-20 05:00 am S 8.0 15.0----29.99+0.02 44.1 44.1----
2024-05-20 04:54 am S 8.9 13.0----29.99- 43.9 44.1----
2024-05-20 04:48 am S 9.9 13.0----29.99- 43.9 44.1----
2024-05-20 04:42 am S 9.9 14.0----29.99- 43.9 44.1----
2024-05-20 04:36 am S 11.1 14.0----29.99- 43.9 44.1----
2024-05-20 04:30 am S 9.9 13.0----29.99- 43.9 44.1----
2024-05-20 04:24 am S 11.1 15.0----29.99- 43.9 44.1----
2024-05-20 04:18 am S 13.0 15.9----29.99- 43.7 44.1----
2024-05-20 04:12 am S 9.9 14.0----29.99- 43.7 44.1----
2024-05-20 04:06 am S 8.9 13.0----29.99- 43.7 44.1----
2024-05-20 04:00 am S 9.9 13.0----29.99+0.02 43.7 43.9----
2024-05-20 03:54 am S 8.9 12.0----29.99- 43.5 43.9----
2024-05-20 03:48 am S 9.9 13.0----29.98- 43.3 43.9----
2024-05-20 03:42 am S 8.9 13.0----29.98- 43.3 43.9----
2024-05-20 03:36 am S 9.9 13.0----29.98- 43.2 43.9----
2024-05-20 03:30 am S 8.9 13.0----29.98- 43.0 43.7----
2024-05-20 03:24 am S 9.9 12.0----29.98- 42.8 43.7----
2024-05-20 03:18 am S 8.0 12.0----29.98- 42.8 43.7----
2024-05-20 03:12 am S 8.0 13.0----29.98- 42.8 43.5----
2024-05-20 03:06 am S 9.9 12.0----29.98- 42.8 43.5----
2024-05-20 03:00 am S 9.9 12.0----29.98+0.03 42.8 43.5----
2024-05-20 02:54 am S 8.9 12.0----29.98- 42.8 43.5----
2024-05-20 02:48 am S 7.0 11.1----29.98- 42.8 43.3----
2024-05-20 02:42 am S 8.9 12.0----29.98- 42.8 43.3----
2024-05-20 02:36 am S 9.9 14.0----29.98- 42.8 43.3----
2024-05-20 02:30 am S 11.1 12.0----29.98- 43.0 43.2----
2024-05-20 02:24 am S 8.9 12.0----29.98- 43.0 43.2----
2024-05-20 02:18 am S 8.9 13.0----29.98- 43.2 43.3----
2024-05-20 02:12 am S 11.1 15.0----29.98- 43.2 43.3----
2024-05-20 02:06 am S 12.0 14.0----29.98- 43.3 43.3----
2024-05-20 02:00 am S 9.9 13.0----29.97+0.03 43.7 43.2----
2024-05-20 01:54 am S 9.9 15.0----29.97- 43.9 42.8----
2024-05-20 01:48 am S 9.9 13.0----29.97- 43.9 42.8----
2024-05-20 01:42 am S 9.9 14.0----29.97- 43.9 42.6----
2024-05-20 01:36 am S 11.1 15.9----29.97- 43.5 42.6----
2024-05-20 01:30 am S 14.0 15.9----29.97- 43.5 42.6----
2024-05-20 01:24 am S 9.9 14.0----29.97- 43.7 42.6----
2024-05-20 01:18 am S 9.9 14.0----29.97- 43.9 42.6----
2024-05-20 01:12 am S 9.9 13.0----29.97- 43.9 42.6----
2024-05-20 01:06 am S 9.9 12.0----29.97- 43.9 42.6----
2024-05-20 01:00 am S 9.9 13.0----29.97+0.05 43.7 42.6----
2024-05-20 12:54 am S 9.9 12.0----29.97- 43.7 42.6----
2024-05-20 12:48 am S 9.9 12.0----29.97- 43.7 42.4----
2024-05-20 12:42 am S 11.1 12.0----29.97- 43.5 42.4----
2024-05-20 12:36 am S 11.1 13.0----29.96- 43.5 42.4----
2024-05-20 12:30 am S 9.9 12.0----29.96- 43.3 42.3----
2024-05-20 12:24 am S 9.9 13.0----29.96- 43.3 42.3----
2024-05-20 12:18 am S 9.9 14.0----29.96- 43.3 42.3----
2024-05-20 12:12 am S 9.9 13.0----29.96- 43.5 42.3----
2024-05-20 12:06 am S 12.0 14.0----29.96- 43.9 42.3----
2024-05-20 12:00 am S 11.1 13.0----29.95+0.04 43.9 42.3----
2024-05-19 11:54 pm S 8.9 12.0----29.95- 45.1 42.3----
2024-05-19 11:48 pm S 7.0 8.9----29.95- 46.6 42.3----
2024-05-19 11:42 pm S 8.0 8.9----29.95- 45.7 42.4----
2024-05-19 11:36 pm SE 1.9 2.9----29.95- 45.5 42.4----
2024-05-19 11:30 pm SW 1.9 6.0----29.94- 45.9 42.4----
2024-05-19 11:24 pm W 5.1 7.0----29.94- 46.2 42.4----
2024-05-19 11:18 pm W 4.1 7.0----29.94- 46.8 42.4----
2024-05-19 11:12 pm W 5.1 9.9----29.94- 47.5 42.4----
2024-05-19 11:06 pm W 1.9 5.1----29.94- 47.3 42.4----
2024-05-19 11:00 pm W 1.0 2.9----29.94+0.04 46.9 42.4----
2024-05-19 10:54 pmWSW 1.9 2.9----29.94- 47.3 42.4----
2024-05-19 10:48 pm W 1.9 4.1----29.93- 47.5 42.4----
2024-05-19 10:42 pm- 0.0 1.9----29.93- 47.1 42.4----
2024-05-19 10:36 pm- 0.0 1.9----29.93- 47.3 42.4----
2024-05-19 10:30 pm- 0.0 2.9----29.93- 47.3 42.4----
2024-05-19 10:24 pm NW 1.0 2.9----29.93- 47.1 42.4----
2024-05-19 10:18 pmNNW 1.9 2.9----29.93- 46.9 42.4----
2024-05-19 10:12 pm NW 1.0 2.9----29.92- 47.5 42.4----
2024-05-19 10:06 pm NW 1.0 4.1----29.92- 47.8 42.4----
2024-05-19 10:00 pm NW 1.0 5.1----29.92+0.04 48.2 42.4----
2024-05-19 09:54 pm NW 1.9 5.1----29.92- 48.4 42.4----
2024-05-19 09:48 pmWNW 1.0 5.1----29.91- 48.2 42.4----
2024-05-19 09:42 pm NW 2.9 6.0----29.91- 46.8 42.4----
2024-05-19 09:36 pmNNW 4.1 5.1----29.91- 45.5 42.4----
2024-05-19 09:30 pm NW 2.9 7.0----29.91- 49.3 42.4----
2024-05-19 09:24 pmNNW 6.0 8.0----29.91- 50.5 42.4----
2024-05-19 09:18 pm-------29.91-- 42.4----
2024-05-19 09:12 pm-------29.91-- 42.4----
2024-05-19 09:06 pm-------29.91-- 42.4----
2024-05-19 09:00 pm N 8.0 11.1----29.91+0.04 48.7 42.4----
2024-05-19 08:54 pm N 8.9 9.9----29.91- 47.5 42.4----
2024-05-19 08:48 pm N 8.0 8.9----29.91- 48.2 42.4----
2024-05-19 08:42 pmNNW 8.9 11.1----29.91- 49.8 42.4----
2024-05-19 08:36 pmNNW 8.0 11.1----29.91- 51.1 42.4----
2024-05-19 08:30 pm N 6.0 9.9----29.91- 54.5 42.4----
2024-05-19 08:24 pm N 8.0 9.9----29.91- 54.3 42.4----
2024-05-19 08:18 pm NE 6.0 9.9----29.90- 54.5 42.4----
2024-05-19 08:12 pmNNE 8.0 11.1----29.90- 54.0 42.6----
2024-05-19 08:06 pm NE 7.0 11.1----29.90- 54.3 42.6----
2024-05-19 08:00 pm NE 8.0 12.0----29.90+0.04 54.0 42.6----
2024-05-19 07:54 pmNNE 9.9 13.0----29.90- 54.0 42.6----
2024-05-19 07:48 pm NE 6.0 8.9----29.89- 54.1 42.6----
2024-05-19 07:42 pmNNE 8.9 12.0----29.89- 54.0 42.6----
2024-05-19 07:36 pm NE 8.0 12.0----29.89- 53.8 42.6----
2024-05-19 07:30 pmNNE 8.0 13.0----29.89- 53.6 42.8----
2024-05-19 07:24 pmNNE 8.0 12.0----29.89- 54.0 42.6----
2024-05-19 07:18 pmNNE 11.1 14.0----29.89-- 42.6----
2024-05-19 07:12 pm NE 8.9 12.0----29.88-- 42.6----
2024-05-19 07:06 pmNNE 9.9 15.0----29.88-- 42.8----
2024-05-19 07:00 pm N 8.9 12.0----29.88+0.03 54.1 42.8----
2024-05-19 06:54 pm N 7.0 12.0----29.88- 53.8 42.8----
2024-05-19 06:48 pm N 8.9 12.0----29.88- 54.0 42.8----
2024-05-19 06:42 pm N 8.9 13.0----29.88- 53.6 42.8----
2024-05-19 06:36 pmNNE 8.9 12.0----29.88- 53.4 42.8----
2024-05-19 06:30 pmNNE 8.9 13.0----29.88- 53.2 43.0----
2024-05-19 06:24 pmNNE 8.0 12.0----29.88- 53.4 43.0----
2024-05-19 06:18 pmNNE 8.9 13.0----29.88- 53.2 43.2----
2024-05-19 06:12 pm NE 8.0 12.0----29.88- 52.9 43.3----
2024-05-19 06:06 pm NE 9.9 13.0----29.87- 52.9 43.5----
2024-05-19 06:00 pmNNE 8.9 12.0----29.87- 52.5 43.7----
2024-05-19 05:54 pmNNE 8.9 14.0----29.87- 52.5 43.7----
2024-05-19 05:48 pmNNE 12.0 15.0----29.87- 53.2 43.9----
2024-05-19 05:42 pm NE 11.1 14.0----29.87- 53.1 43.9----
2024-05-19 05:36 pmNNE 9.9 15.0----29.87- 53.2 44.1----
2024-05-19 05:30 pmNNE 9.9 14.0----29.86-- 44.1----
2024-05-19 05:24 pmNNE 11.1 15.9----29.86-- 43.9----
2024-05-19 05:18 pmNNE 11.1 15.9----29.86-- 43.9----
2024-05-19 05:12 pmNNE 9.9 15.0----29.86-- 43.9----
2024-05-19 05:06 pmNNE 12.0 15.9----29.86-- 43.9----
2024-05-19 05:00 pm NE 11.1 15.9----29.86+0.04- 43.9----
2024-05-19 04:54 pmENE 11.1 18.1----29.85-- 43.9----
2024-05-19 04:48 pmNNE 12.0 18.1----29.85- 53.1 43.9----
2024-05-19 04:42 pmNNE 13.0 18.1----29.85- 53.1 43.9----
2024-05-19 04:36 pm NE 13.0 15.0----29.85- 53.1 43.9----
2024-05-19 04:30 pm NE 11.1 15.9----29.85- 53.1 43.9----
2024-05-19 04:24 pm NE 11.1 18.1----29.85- 52.5 43.9----
2024-05-19 04:18 pm---------- 43.7----
2024-05-19 04:12 pm---------- 43.7----
2024-05-19 04:06 pm---------- 43.5----
2024-05-19 04:00 pmNNE 12.0 15.0----29.85+0.04- 43.5----
2024-05-19 03:54 pm NE 11.1 15.9----29.85-- 43.3----
2024-05-19 03:48 pm NE 9.9 13.0------------
2024-05-19 03:42 pm NE 8.0 12.0------------
2024-05-19 03:36 pm NE 8.0 13.0------------
2024-05-19 03:30 pmNNE 11.1 19.0----29.85- 51.1 43.2----
2024-05-19 03:24 pm NE 12.0 18.1----29.85- 51.1 43.2----
2024-05-19 03:18 pm NE 12.0 19.0----29.85- 51.3 43.2----
2024-05-19 03:12 pmNNE 11.1 17.1----29.84- 51.1 43.0----
2024-05-19 03:06 pmNNE 13.0 17.1----29.84- 51.3 43.0----
2024-05-19 03:00 pmNNE 12.0 17.1------- 43.0----
2024-05-19 02:54 pmNNE 11.1 19.0------- 43.2----
2024-05-19 02:48 pmNNE 11.1 15.9----29.84-- 43.2----
2024-05-19 02:42 pmNNE 12.0 19.0----29.83-- 43.2----
2024-05-19 02:36 pm N 13.0 18.1----29.83-- 43.2----
2024-05-19 02:30 pmNNE 8.9 15.0----29.83-- 43.2----
2024-05-19 02:24 pmNNE 9.9 15.9----29.83-- 43.0----
2024-05-19 02:18 pm-------29.83- 49.3 43.0----
2024-05-19 02:12 pm-------29.83- 49.5 42.8----
2024-05-19 02:06 pm-------29.83- 49.5 42.6----
2024-05-19 02:00 pm N 15.9 21.0----29.82+0.05 49.6 42.6----
2024-05-19 01:54 pm N 15.9 21.0----29.82- 49.5 42.6----
2024-05-19 01:48 pm N 13.0 18.1----29.82- 49.5 42.6----
2024-05-19 01:42 pm N 14.0 20.0----29.82- 49.3 42.6----
2024-05-19 01:36 pm N 15.0 20.0----29.82- 49.3 42.6----
2024-05-19 01:30 pm N 15.9 20.0----29.82- 48.9 42.6----
2024-05-19 01:24 pm N 11.1 15.0----29.82- 48.9 42.6----
2024-05-19 01:18 pm N 13.0 18.1----29.82- 48.7 42.6----
2024-05-19 01:12 pm N 14.0 18.1----29.82- 48.2 42.6----
2024-05-19 01:06 pm N 13.0 18.1----29.81- 48.6 42.6----
2024-05-19 01:00 pm N 13.0 19.0----29.81+0.05 49.3 42.4----
2024-05-19 12:54 pmNNE 11.1 18.1----29.81- 49.5 42.4----
2024-05-19 12:48 pmNNE 9.9 17.1----29.80- 49.1 42.4----
2024-05-19 12:42 pm N 12.0 17.1----29.80- 48.7 42.4----
2024-05-19 12:36 pmNNE 13.0 19.0----29.80- 48.7 42.4----
2024-05-19 12:30 pm N 14.0 18.1----29.80- 48.4 42.4----
2024-05-19 12:24 pmNNE 14.0 20.0----29.80- 48.2 42.4----
2024-05-19 12:18 pmNNE 12.0 18.1----29.80- 48.4 42.3----
2024-05-19 12:12 pmNNE 12.0 20.0----29.80- 48.6 42.3----
2024-05-19 12:06 pm N 13.0 19.0----29.80- 48.4 42.3----
2024-05-19 12:00 pm N 9.9 14.0----29.80+0.05- 42.3----
2024-05-19 11:54 am N 11.1 13.0----29.79-- 42.3----
2024-05-19 11:48 am N 8.9 15.0----29.79-- 42.3----
2024-05-19 11:42 amNNE 8.0 13.0----29.79-- 42.3----
2024-05-19 11:36 amNNE 9.9 17.1----29.79-- 42.3----
2024-05-19 11:30 amNNE 8.9 20.0----29.78- 48.2 42.3----
2024-05-19 11:24 amNNE 12.0 19.0----29.78- 48.4 42.3----
2024-05-19 11:18 am N 14.0 20.0----29.78- 48.9 42.3----
2024-05-19 11:12 amNNE 12.0 15.0----29.78- 48.7 42.3----
2024-05-19 11:06 am N 9.9 21.0----29.78- 48.0 42.3----
2024-05-19 11:00 amNNE 9.9 20.0----29.78+0.03- 42.3----
2024-05-19 10:54 amNNE 14.0 20.0----29.77-- 42.3----
2024-05-19 10:48 amNNE 14.0 19.0----29.77- 47.7 42.3----
2024-05-19 10:42 amNNE 11.1 17.1----29.77- 47.7 42.3----
2024-05-19 10:36 am NE 15.9 19.0----29.77- 47.5 42.3----
2024-05-19 10:30 amNNE 12.0 19.0----29.77- 47.5 42.3----
2024-05-19 10:24 amNNE 12.0 18.1----29.77- 47.3 42.3----
2024-05-19 10:18 amNNE 11.1 18.1----29.77- 47.3 42.1----
2024-05-19 10:12 amNNE 9.9 18.1----29.76- 46.9 42.1----
2024-05-19 10:06 amNNE 12.0 15.0----29.76- 46.4 42.1----
2024-05-19 10:00 amNNE 8.9 15.0----29.76+0.02 46.0 42.1----
2024-05-19 09:54 amNNE 9.9 18.1----29.76- 46.0 42.1----